This demonstration page uses our WeatherBlox Daily Observations layout. Learn more.

Left ArrowRight Arrow

Hourly Observations for January 31, 2022

Temp ( °F °C ) Dew Point ( °F °C ) Humidity (%) Winds ( mph kmh ) Pressure ( in mb ) Visibility ( mi km ) Precip ( " mm )
12:56 am 00:56 Mostly Cloudy 35 1.8 21 -6.1 56 56 SSE 9 15 29.98 1015 10 16 0.00 0.00
1:56 am 01:56 Mostly Cloudy 34 1 21 -5.9 60 60 SSE 5 7 29.97 1015 10 16 0.00 0.00
2:56 am 02:56 Mostly Cloudy 34 1 22 -5.7 61 61 SSE 5 7 29.96 1015 10 16 0.00 0.00
3:56 am 03:56 Mostly Cloudy 33 0.3 21 -5.9 63 63 SSE 6 9 29.93 1014 10 16 0.00 0.00
4:56 am 04:56 Clear 31 -0.7 21 -6.1 67 67 S 5 7 29.93 1014 10 16 0.00 0.00
5:56 am 05:56 Partly Cloudy 29 -1.7 21 -6.3 71 71 SE 3 6 29.93 1013 10 16 0.00 0.00
6:56 am 06:56 Partly Cloudy 27 -2.6 20 -6.6 74 74 Calm 29.93 1013 9 14 0.00 0.00
7:56 am 07:56 Partly Cloudy 26 -3.2 19 -7 75 75 E 3 6 29.92 1013 10 16 0.00 0.00
8:56 am 08:56 Mostly Cloudy 30 -1.3 21 -6.1 70 70 SSE 6 9 29.92 1013 10 16 0.00 0.00
9:56 am 09:56 Mostly Cloudy 34 1.3 22 -5.8 60 60 SSE 7 11 29.90 1013 10 16 0.00 0.00
10:56 am 10:56 Mostly Cloudy 40 4.5 22 -5.6 48 48 SE 5 7 29.87 1011 10 16 0.00 0.00
11:56 am 11:56 Mostly Cloudy 45 7.1 24 -4.6 43 43 SSE 7 11 29.82 1010 10 16 0.00 0.00
12:56 pm 12:56 Mostly Cloudy 50 10.1 24 -4.3 36 36 S 9 15 29.78 1008 10 16 0.00 0.00
1:56 pm 13:56 Mostly Cloudy 51 10.6 25 -3.9 36 36 SSE 10 17 29.75 1007 10 16 0.00 0.00
2:56 pm 14:56 Mostly Cloudy 54 12.4 26 -3.4 33 33 SSE 9 15 29.72 1006 10 16 0.00 0.00
3:56 pm 15:56 Sunny 54 12.1 27 -2.9 35 35 SSE 10 17 29.70 1006 10 16 0.00 0.00
4:56 pm 16:56 Sunny 53 11.5 26 -3.4 35 35 SSE 6 9 29.68 1005 10 16 0.00 0.00
5:56 pm 17:56 Clear 50 10 23 -5.2 34 34 Calm 29.68 1005 10 16 0.00 0.00
6:56 pm 18:56 Clear 46 7.9 23 -5.2 39 39 E 3 6 29.70 1006 10 16 0.00 0.00
7:56 pm 19:56 Mostly Cloudy 48 8.7 21 -5.9 35 35 SE 3 6 29.71 1006 10 16 0.00 0.00
8:56 pm 20:56 Mostly Cloudy 43 6.3 23 -5.1 44 44 S 6 9 29.71 1006 10 16 0.00 0.00
9:56 pm 21:56 Clear 40 4.7 23 -5.1 49 49 Calm 29.70 1006 10 16 0.00 0.00
10:56 pm 22:56 Clear 43 6.2 20 -6.4 40 40 SW 8 13 29.72 1006 10 16 0.00 0.00
11:56 pm 23:56 Clear 40 4.2 20 -6.7 45 45 NW 9 15 29.77 1008 10 16 0.00 0.00

Powered by AerisWeather